Location: Unspecified
(0.0000°N, 0.0000°E)
Time: 11:32:05
(UTC+02:00)

Orbus 21S - Visible Passes

Search period start: 24 October 2014 00:00
Search period end: 02 November 2014 23:00
Orbit: 319 x 33455 km, 24.1° (Epoch: 22 October)

Date Brightness Start Highest point End Pass type
(mag) Time Alt. Az. Time Alt. Az. Time Alt. Az.
24 Oct 8.1 00:00:00 68° SSW 23:59:45 68° SSW 04:28:14 10° ESE visible
24 Oct 6.2 14:44:38 10° N 21:38:31 25° ESE 15:02:36 10° ENE visible
25 Oct 7.8 20:24:37 10° WNW 21:36:46 78° SW 04:35:46 10° E visible
26 Oct 6.5 14:48:35 10° NNW 21:38:11 41° SE 23:42:29 10° ESE visible
27 Oct 6.4 20:34:27 10° WNW 05:32:59 64° SSE 05:42:02 10° E visible
28 Oct 7.2 15:53:22 10° NW 22:27:28 55° SE 00:57:43 10° ESE visible
29 Oct 5.1 21:48:58 10° W 06:41:49 84° SSE 06:47:20 10° ENE visible
30 Oct 7.8 16:58:36 10° NW 17:20:52 73° NE 02:08:19 10° ESE visible
31 Oct 9.9 18:35:01 10° ESE 19:24:02 12° ESE 20:03:08 10° ESE visible
31 Oct 10.1 23:17:55 10° W 00:27:38 20° WSW 02:46:50 10° WSW visible
01 Nov 7.9 18:04:31 10° WNW 18:44:41 89° SW 03:16:18 10° E visible
02 Nov 6.1 13:31:16 10° N 20:25:02 27° ESE 13:59:40 10° E visible
